📊 Raw Sensor Data
Showing records 45901 to 45925 of 85,061 total
| ID | Distance (ft) | Battery V | Battery A | Int Temp (°F) | Int Humid (%) | Ext Temp (°F) | Solar V | RSSI | SNR | Time Stamp |
|---|---|---|---|---|---|---|---|---|---|---|
| 39173 | 15.6 | 4.01 | 0 | 54 | 40 | 64 | 5.10 | -74 | 7 | 04/29/2025 07:45 AM |
| 39172 | 15.5 | 4.05 | 14 | 49 | 40 | 60 | 4.50 | -75 | 8 | 04/29/2025 07:15 AM |
| 39171 | 15.5 | 4.04 | 6 | 46 | 40 | 56 | 4.50 | -75 | 8 | 04/29/2025 07:00 AM |
| 39170 | 15.4 | 4.01 | 0 | 44 | 41 | 51 | 4.50 | -75 | 8 | 04/29/2025 06:45 AM |
| 39169 | 15.3 | 4.00 | -5 | 43 | 41 | 46 | 4.50 | -75 | 8 | 04/29/2025 06:30 AM |
| 39168 | 15.4 | 3.93 | -21 | 43 | 41 | 44 | 4.50 | -75 | 8 | 04/29/2025 06:15 AM |
| 39167 | 15.3 | 3.94 | -35 | 43 | 41 | 44 | 1.30 | -74 | 8 | 04/29/2025 06:00 AM |
| 39166 | 15.4 | 3.94 | -5 | 43 | 41 | 46 | 0.00 | -74 | 8 | 04/29/2025 05:45 AM |
| 39165 | 15.4 | 3.94 | -5 | 43 | 41 | 45 | 0.00 | -74 | 8 | 04/29/2025 05:30 AM |
| 39164 | 15.4 | 4.00 | -5 | 43 | 42 | 44 | 0.00 | -74 | 8 | 04/29/2025 05:15 AM |
| 39163 | -- | 3.95 | -5 | 43 | 42 | 46 | 0.00 | -75 | 8 | 04/29/2025 04:45 AM |
| 39162 | 15.4 | 4.00 | -5 | 43 | 42 | 45 | 0.10 | -75 | 8 | 04/29/2025 04:30 AM |
| 39161 | -- | 3.95 | -5 | 43 | 42 | 46 | 0.00 | -75 | 8 | 04/29/2025 04:15 AM |
| 39160 | -- | 3.95 | -5 | 44 | 42 | 46 | 0.00 | -75 | 8 | 04/29/2025 04:00 AM |
| 39159 | 15.5 | 4.01 | -5 | 44 | 42 | 47 | 0.00 | -75 | 9 | 04/29/2025 03:46 AM |
| 39158 | 15.4 | 3.95 | -5 | 45 | 42 | 46 | 0.10 | -74 | 9 | 04/29/2025 03:30 AM |
| 39157 | -- | 4.01 | -5 | 45 | 42 | 47 | 0.00 | -74 | 8 | 04/29/2025 03:15 AM |
| 39156 | -- | 3.95 | -5 | 45 | 42 | 48 | 0.00 | -74 | 8 | 04/29/2025 03:00 AM |
| 39155 | -- | 3.95 | -5 | 45 | 42 | 47 | 0.00 | -74 | 8 | 04/29/2025 02:46 AM |
| 39154 | 15.4 | 3.95 | -5 | 45 | 43 | 47 | 0.10 | -75 | 8 | 04/29/2025 02:30 AM |
| 39153 | -- | 3.95 | -5 | 45 | 43 | 47 | 0.00 | -75 | 8 | 04/29/2025 02:15 AM |
| 39152 | -- | 4.01 | -5 | 46 | 44 | 47 | 0.00 | -75 | 9 | 04/29/2025 02:00 AM |
| 39151 | -- | 3.96 | -5 | 46 | 44 | 47 | 0.00 | -75 | 8 | 04/29/2025 01:45 AM |
| 39150 | -- | 4.01 | -5 | 48 | 44 | 48 | 0.00 | -74 | 8 | 04/29/2025 01:30 AM |
| 39149 | -- | 3.96 | -5 | 49 | 44 | 48 | 0.00 | -74 | 8 | 04/29/2025 01:15 AM |